Weather History for Rickenbacker, OH

Change the Weather History Date:

Tuesday, December 11, 2012

  Actual Average Record
Temperature  
Mean Temperature 32 °F -  
Max Temperature 37 °F 41 °F 68 °F (2007)
Min Temperature 27 °F 28 °F 8 °F (1996)
Degree Days  
Heating Degree Days 32    
Moisture  
Dew Point 27 °F    
Average Humidity 76    
Maximum Humidity 83    
Minimum Humidity 61    
Precipitation  
Precipitation 0.00 in - - ()
Sea Level Pressure  
Sea Level Pressure 30.08 in    
Wind  
Wind Speed 9 mph (WSW)    
Max Wind Speed 13 mph    
Max Gust Speed 17 mph    
Visibility 10 miles    
Events      
Averages and records for this station are not official NWS values.
T = Trace of Precipitation, MM = Missing Value Source: NWS Daily Summary

Daily Weather History Graph

Daily Weather History Graph

Search for Another Location

Airport:

Trip Planner

Search our weather history database for the weather conditions in past years. The results will help you decide how hot, cold, wet, or windy it might be!

Date:

Astronomy

Dec. 11, 2012 Rise Set
Actual Time 7:43 AM EST 5:07 PM EST
Civil Twilight 7:12 AM EST 5:37 PM EST
Nautical Twilight 6:39 AM EST 6:11 PM EST
Astronomical Twilight 6:06 AM EST 6:44 PM EST
Moon 5:36 AM EST (12/11) 3:45 PM EST (12/11)
Length of Visible Light 10h 24m
Length of Day
9h 23m
Waning Crescent, 4% of the Moon is Illuminated
Dec 11
Waning Crescent
Dec 13
New
Dec 20
First Quarter
Dec 28
Full
Jan 4
Last Quarter

Hourly Weather History & Observations

Time (EST) Temp. Windchill Dew Point Humidity Pressure Visibility Wind Dir Wind Speed Gust Speed Precip Events Conditions
12:15 AM 35.1 °F 26.9 °F 29.8 °F 81% 29.90 in 7.0 mi West 11.5 mph - N/A   Overcast
12:35 AM 34.7 °F 27.5 °F 29.7 °F 82% 29.90 in 10.0 mi West 9.2 mph - N/A   Overcast
12:55 AM 34.7 °F 26.9 °F 29.7 °F 82% 29.90 in 7.0 mi West 10.4 mph - N/A   Overcast
1:15 AM 34.7 °F 28.1 °F 29.5 °F 81% 29.90 in 7.0 mi West 8.1 mph - N/A   Overcast
1:35 AM 34.5 °F 27.9 °F 29.3 °F 81% 29.91 in 7.0 mi West 8.1 mph - N/A   Overcast
1:55 AM 34.3 °F 27.0 °F 29.3 °F 82% 29.91 in 7.0 mi West 9.2 mph - N/A   Overcast
2:15 AM 34.2 °F 26.8 °F 29.5 °F 83% 29.93 in 7.0 mi West 9.2 mph - N/A   Overcast
2:35 AM 34.2 °F 25.2 °F 29.3 °F 82% 29.93 in 10.0 mi West 12.7 mph - N/A   Overcast
2:55 AM 34.2 °F 27.5 °F 29.3 °F 82% 29.93 in 10.0 mi West 8.1 mph - N/A   Overcast
3:15 AM 34.3 °F 28.4 °F 29.3 °F 82% 29.93 in 10.0 mi West 6.9 mph - N/A   Overcast
3:35 AM 34.3 °F 27.0 °F 29.5 °F 82% 29.94 in 10.0 mi West 9.2 mph - N/A   Overcast
3:55 AM 34.3 °F 28.4 °F 29.5 °F 82% 29.94 in 10.0 mi West 6.9 mph - N/A   Overcast
4:15 AM 34.5 °F 26.7 °F 29.5 °F 82% 29.95 in 10.0 mi West 10.4 mph - N/A   Overcast
4:35 AM 34.7 °F 28.8 °F 29.7 °F 82% 29.95 in 10.0 mi West 6.9 mph - N/A   Overcast
4:55 AM 34.7 °F 26.4 °F 29.8 °F 82% 29.95 in 10.0 mi West 11.5 mph - N/A   Overcast
5:15 AM 34.7 °F 27.5 °F 30.0 °F 83% 29.96 in 10.0 mi West 9.2 mph - N/A   Overcast
5:35 AM 34.7 °F 26.9 °F 30.0 °F 83% 29.97 in 10.0 mi West 10.4 mph - N/A   Overcast
5:55 AM 34.9 °F 27.1 °F 29.8 °F 82% 29.98 in 10.0 mi West 10.4 mph - N/A   Overcast
6:15 AM 34.9 °F 28.3 °F 29.5 °F 81% 29.98 in 10.0 mi West 8.1 mph - N/A   Overcast
6:35 AM 34.9 °F 28.3 °F 29.5 °F 81% 29.98 in 10.0 mi West 8.1 mph - N/A   Overcast
6:55 AM 34.9 °F 28.3 °F 29.3 °F 80% 30.00 in 10.0 mi West 8.1 mph - N/A   Overcast
7:15 AM 34.9 °F 27.1 °F 29.1 °F 79% 30.01 in 10.0 mi West 10.4 mph - N/A   Overcast
7:35 AM 34.9 °F 29.0 °F 28.9 °F 79% 30.01 in 10.0 mi WSW 6.9 mph - N/A   Overcast
7:55 AM 34.7 °F 27.5 °F 29.5 °F 81% 30.02 in 10.0 mi WSW 9.2 mph - N/A   Overcast
8:15 AM 34.7 °F 28.1 °F 29.7 °F 82% 30.03 in 10.0 mi WSW 8.1 mph - N/A   Overcast
8:35 AM 34.7 °F 28.1 °F 29.8 °F 82% 30.04 in 7.0 mi WSW 8.1 mph - N/A   Overcast
8:55 AM 34.9 °F 28.3 °F 29.8 °F 82% 30.05 in 7.0 mi West 8.1 mph - N/A   Overcast
9:15 AM 34.9 °F 28.3 °F 29.8 °F 82% 30.06 in 10.0 mi West 8.1 mph - N/A   Overcast
9:35 AM 35.2 °F 30.3 °F 30.0 °F 81% 30.06 in 7.0 mi WSW 5.8 mph - N/A   Overcast
9:55 AM 35.6 °F 30.7 °F 30.0 °F 80% 30.08 in 10.0 mi West 5.8 mph - N/A   Overcast
10:15 AM 36.3 °F 30.1 °F 29.5 °F 76% 30.09 in 10.0 mi WSW 8.1 mph - N/A   Overcast
10:35 AM 36.7 °F 30.5 °F 29.7 °F 76% 30.09 in 10.0 mi West 8.1 mph - N/A   Overcast
10:55 AM 36.9 °F 30.1 °F 29.8 °F 76% 30.09 in 10.0 mi West 9.2 mph - N/A   Overcast
11:15 AM 36.9 °F 29.1 °F 29.7 °F 75% 30.10 in 10.0 mi WSW 11.5 mph - N/A   Overcast
11:35 AM 36.3 °F 28.4 °F 29.7 °F 77% 30.10 in 10.0 mi WSW 11.5 mph - N/A   Overcast
11:55 AM 35.8 °F 28.3 °F 29.7 °F 78% 30.10 in 10.0 mi WSW 10.4 mph - N/A   Overcast
12:15 PM 35.8 °F 28.8 °F 29.7 °F 78% 30.10 in 7.0 mi WSW 9.2 mph - N/A   Overcast
12:35 PM 35.6 °F 27.5 °F 29.3 °F 78% 30.10 in 10.0 mi WSW 11.5 mph - N/A   Overcast
12:55 PM 35.6 °F 28.0 °F 28.6 °F 76% 30.11 in 10.0 mi West 10.4 mph - N/A   Overcast
1:15 PM 36.0 °F 28.5 °F 28.0 °F 73% 30.10 in 10.0 mi West 10.4 mph - N/A   Overcast
1:35 PM 36.3 °F 29.5 °F 28.0 °F 72% 30.10 in 10.0 mi West 9.2 mph - N/A   Overcast
1:55 PM 36.3 °F 30.8 °F 27.9 °F 71% 30.10 in 10.0 mi West 6.9 mph - N/A   Overcast
2:15 PM 36.9 °F 30.1 °F 27.5 °F 69% 30.10 in 10.0 mi WSW 9.2 mph - N/A   Overcast
2:35 PM 37.2 °F 29.6 °F 26.8 °F 66% 30.10 in 10.0 mi West 11.5 mph - N/A   Overcast
2:55 PM 37.0 °F 29.8 °F 26.8 °F 66% 30.11 in 10.0 mi West 10.4 mph 17.3 mph N/A   Overcast
3:35 PM 36.5 °F 29.2 °F 26.2 °F 66% 30.11 in 10.0 mi WSW 10.4 mph - N/A   Overcast
3:55 PM 36.5 °F 29.2 °F 25.5 °F 64% 30.13 in 10.0 mi West 10.4 mph - N/A   Overcast
4:15 PM 36.3 °F 28.9 °F 25.7 °F 65% 30.13 in 10.0 mi West 10.4 mph - N/A   Overcast
4:35 PM 36.1 °F 29.3 °F 24.8 °F 63% 30.14 in 10.0 mi WSW 9.2 mph - N/A   Overcast
4:55 PM 35.8 °F 29.4 °F 23.4 °F 61% 30.15 in 10.0 mi WSW 8.1 mph - N/A   Overcast
5:15 PM 35.4 °F 27.8 °F 23.7 °F 62% 30.15 in 10.0 mi West 10.4 mph - N/A   Overcast
5:35 PM 34.5 °F 28.6 °F 23.7 °F 65% 30.15 in 10.0 mi West 6.9 mph - N/A   Overcast
5:55 PM 33.6 °F 28.4 °F 23.4 °F 66% 30.15 in 10.0 mi West 5.8 mph - N/A   Mostly Cloudy
6:15 PM 32.9 °F 29.8 °F 23.0 °F 67% 30.16 in 10.0 mi WSW 3.5 mph - N/A   Scattered Clouds
6:35 PM 32.4 °F 26.9 °F 23.5 °F 70% 30.17 in 10.0 mi WSW 5.8 mph - N/A   Scattered Clouds
6:55 PM 32.0 °F 28.7 °F 23.9 °F 72% 30.18 in 10.0 mi WSW 3.5 mph - N/A   Mostly Cloudy
7:15 PM 32.0 °F 27.5 °F 24.4 °F 74% 30.18 in 10.0 mi SW 4.6 mph - N/A   Scattered Clouds
7:35 PM 31.6 °F 28.3 °F 24.3 °F 74% 30.18 in 10.0 mi SW 3.5 mph - N/A   Scattered Clouds
7:55 PM 31.3 °F 25.6 °F 23.7 °F 74% 30.19 in 10.0 mi WSW 5.8 mph - N/A   Scattered Clouds
8:15 PM 30.6 °F 27.1 °F 22.8 °F 73% 30.19 in 10.0 mi SW 3.5 mph - N/A   Clear
8:35 PM 30.4 °F 25.6 °F 23.0 °F 74% 30.20 in 10.0 mi WSW 4.6 mph - N/A   Clear
8:55 PM 30.0 °F - 23.2 °F 76% 30.20 in 10.0 mi Calm Calm - N/A   Clear
9:15 PM 30.2 °F - 23.5 °F 76% 30.21 in 10.0 mi Calm Calm - N/A   Clear
9:35 PM 30.2 °F 26.7 °F 23.4 °F 76% 30.21 in 10.0 mi SW 3.5 mph - N/A   Clear
9:55 PM 30.0 °F 26.5 °F 23.4 °F 76% 30.21 in 10.0 mi SSW 3.5 mph - N/A   Clear
10:15 PM 29.5 °F 25.9 °F 22.8 °F 76% 30.21 in 10.0 mi South 3.5 mph - N/A   Clear
10:35 PM 28.4 °F 23.3 °F 22.5 °F 78% 30.21 in 10.0 mi South 4.6 mph - N/A   Clear
10:55 PM 28.2 °F 23.1 °F 22.1 °F 78% 30.22 in 10.0 mi SSW 4.6 mph - N/A   Clear
11:15 PM 28.8 °F 23.7 °F 22.8 °F 78% 30.23 in 10.0 mi SSW 4.6 mph - N/A   Clear
11:35 PM 28.4 °F 24.6 °F 22.6 °F 79% 30.24 in 10.0 mi SSW 3.5 mph - N/A   Clear
11:55 PM 27.7 °F 23.8 °F 22.1 °F 80% 30.24 in 10.0 mi South 3.5 mph - N/A   Clear